Find Kosmos-942

NORAD ID: 10288 Int'l Des: 1977-079 Owner: GUKOSR Country: SU operational
LEOCIRCULAR

实时位置

正在加载3D地球...

关于 Kosmos-942

正在加载描述...

即将过境

Passes for default location (London). Set your location on the main map for personalized predictions.

高度历史

Loading altitude history...

两行轨道根数

1 10288U 77079D 26104.88534367 -.00000024 00000-0 -61442-4 0 9995
2 10288 74.0285 25.8497 0045262 244.3361 184.1507 12.42258072188482
Epoch: Apr 14, 2026 • Age: 8 hours

当前状态

高度 1477.9 km
速度 7.14 km/s
星下点 -21.86°S, 76.96°W
发射日期 Aug 24, 1977
运行时间 48.6 years
类型 other

技术详情

分类 Payload
质量 60.00 kg
干质量 60.00 kg
总质量 60.00 kg
长度 0.80 m
直径 0.80 m
跨度 0.80 m
形状 Poly
制造商 NPOPM
平台类型 Strela-1 11F625
阶段状态 In Orbit
所有者/国家 GUKOSR/SU

Most Searched